Date,TemperatureHighF,TemperatureAvgF,TemperatureLowF,DewpointHighF,DewpointAvgF,DewpointLowF,HumidityHigh,HumidityAvg,HumidityLow,PressureMaxIn,PressureMinIn,WindSpeedMaxMPH,WindSpeedAvgMPH,GustSpeedMaxMPH,PrecipitationSumIn
2013-1-1,39.0,34.6,31.0,0.0,0.0,0.0,0,0,100,30.27,30.12,0,0,0,0.00
2013-1-2,39.0,33.2,30.0,0.0,0.0,0.0,0,0,100,30.12,29.95,0,0,0,0.01
2013-1-3,39.0,32.6,27.0,0.0,0.0,0.0,0,0,100,29.95,29.85,0,0,1,0.38
2013-1-4,45.0,40.5,35.0,0.0,0.0,0.0,0,0,100,30.05,29.91,7,0,7,0.03
2013-1-5,43.0,40.8,40.0,0.0,0.0,0.0,0,0,100,29.95,29.87,0,0,0,0.07
2013-1-6,43.0,40.3,38.0,0.0,0.0,0.0,0,0,100,29.92,29.71,7,1,7,0.07
2013-1-7,50.0,44.4,40.0,0.0,0.0,0.0,0,0,100,29.91,29.51,11,1,11,0.04
2013-1-8,49.0,43.8,40.0,0.0,0.0,0.0,0,0,100,29.91,29.44,14,2,14,1.31
2013-1-9,48.0,40.5,36.0,0.0,0.0,0.0,0,0,100,29.70,29.40,13,0,13,0.97
2013-1-10,37.0,34.5,32.0,0.0,0.0,0.0,0,0,100,29.88,29.69,3,0,3,0.02
2013-1-11,35.0,31.3,29.0,0.0,0.0,0.0,0,0,100,30.08,29.87,6,0,6,0.00
2013-1-12,34.0,30.2,28.0,0.0,0.0,0.0,0,0,100,30.21,30.08,3,0,3,0.00
2013-1-13,35.0,31.0,29.0,0.0,0.0,0.0,0,0,100,30.27,30.19,0,0,0,0.01
2013-1-14,36.0,31.8,29.0,0.0,0.0,0.0,0,0,100,30.35,30.23,0,0,0,0.00
2013-1-15,37.0,33.8,30.0,0.0,0.0,0.0,0,0,100,30.48,30.34,0,0,0,0.00
2013-1-16,39.0,33.1,30.0,0.0,0.0,0.0,0,0,100,30.46,30.29,0,0,0,0.00
2013-1-17,36.0,33.4,31.0,0.0,0.0,0.0,0,0,100,30.30,30.05,0,0,0,0.01
2013-1-18,36.0,34.0,32.0,0.0,0.0,0.0,0,0,100,30.12,30.01,1,0,1,0.00
2013-1-19,39.0,36.2,34.0,0.0,0.0,0.0,0,0,100,30.16,30.08,0,0,0,0.00
2013-1-20,42.0,37.6,35.0,0.0,0.0,0.0,0,0,100,30.16,30.04,1,0,1,0.00
2013-1-21,37.0,35.6,32.0,0.0,0.0,0.0,0,0,100,30.04,29.88,0,0,0,0.00
2013-1-22,37.0,33.5,30.0,0.0,0.0,0.0,0,0,100,29.90,29.66,0,0,0,0.00
2013-1-23,40.0,38.2,36.0,0.0,0.0,0.0,0,0,100,29.89,29.59,5,0,5,0.31
2013-1-24,41.0,39.2,37.0,0.0,0.0,0.0,0,0,100,29.96,29.80,2,0,2,0.28
2013-1-25,46.0,42.0,37.0,0.0,0.0,0.0,0,0,100,29.81,29.67,5,0,5,0.04
2013-1-26,43.0,39.5,36.0,0.0,0.0,0.0,0,0,100,29.79,29.61,5,0,5,0.15
2013-1-27,41.0,37.8,33.0,0.0,0.0,0.0,0,0,100,29.81,29.72,5,0,5,0.00
2013-1-28,40.0,37.7,35.0,0.0,0.0,0.0,0,0,100,29.85,29.75,0,0,0,0.14
2013-1-29,45.0,41.5,39.0,0.0,0.0,0.0,0,0,100,30.12,29.85,0,0,0,0.16
2013-1-30,47.0,43.9,42.0,0.0,0.0,0.0,0,0,100,30.16,30.08,0,0,0,0.04
2013-1-31,49.0,45.1,44.0,0.0,0.0,0.0,0,0,100,30.17,30.03,10,0,10,0.03
2013-2-1,47.0,43.6,39.0,0.0,0.0,0.0,0,0,100,30.19,30.10,4,0,4,0.00
2013-2-2,44.0,40.7,38.0,0.0,0.0,0.0,0,0,100,30.16,30.01,7,0,7,0.00
2013-2-3,47.0,42.6,39.0,0.0,0.0,0.0,0,0,100,30.07,29.97,2,0,2,0.01
2013-2-4,48.0,44.1,42.0,0.0,0.0,0.0,0,0,100,29.98,29.64,2,0,3,0.00
2013-2-5,46.0,43.1,41.0,0.0,0.0,0.0,0,0,100,29.67,29.57,11,1,11,0.45
2013-2-6,44.0,41.8,40.0,0.0,0.0,0.0,0,0,100,29.79,29.53,8,1,11,0.43
2013-2-7,46.0,40.2,35.0,0.0,0.0,0.0,0,0,100,29.96,29.53,11,1,12,0.11
2013-2-8,43.0,36.8,31.0,0.0,0.0,0.0,0,0,100,30.07,29.96,0,0,0,0.05
2013-2-9,44.0,40.0,37.0,0.0,0.0,0.0,0,0,100,30.12,30.01,2,0,2,0.04
2013-2-10,41.0,40.3,39.0,0.0,0.0,0.0,0,0,100,30.16,30.10,0,0,0,0.00
2013-2-11,45.0,41.8,38.0,0.0,0.0,0.0,0,0,100,30.13,30.09,9,0,9,0.01
2013-2-12,49.0,44.4,41.0,0.0,0.0,0.0,0,0,100,30.17,30.02,10,0,11,0.00
2013-2-13,47.0,44.4,42.0,0.0,0.0,0.0,0,0,100,30.28,30.07,1,0,8,0.00
2013-2-14,45.0,43.4,41.0,0.0,0.0,0.0,0,0,100,30.35,30.26,4,0,5,0.00
2013-2-15,51.0,44.8,39.0,0.0,0.0,0.0,0,0,100,30.34,29.94,3,0,3,0.00
2013-2-16,50.0,42.9,38.0,0.0,0.0,0.0,0,0,100,29.96,29.86,5,0,5,0.01
2013-2-17,44.0,39.6,36.0,0.0,0.0,0.0,0,0,100,30.01,29.88,2,0,2,0.00
2013-2-18,44.0,39.7,37.0,0.0,0.0,0.0,0,0,100,29.88,29.52,6,0,6,0.00
2013-2-19,46.0,39.7,35.0,0.0,0.0,0.0,0,0,100,29.77,29.49,6,0,6,0.03
2013-2-20,44.0,38.4,35.0,0.0,0.0,0.0,0,0,100,29.80,29.73,5,0,5,0.08
2013-2-21,43.0,39.9,37.0,0.0,0.0,0.0,0,0,100,29.83,29.74,9,0,10,0.00
2013-2-22,46.0,40.2,36.0,0.0,0.0,0.0,0,0,100,29.79,29.38,11,2,11,0.55
2013-2-23,47.0,38.4,32.0,0.0,0.0,0.0,0,0,100,30.15,29.64,3,0,3,0.00
2013-2-24,43.0,40.2,37.0,0.0,0.0,0.0,0,0,100,30.14,29.70,11,0,11,0.10
2013-2-25,50.0,41.0,34.0,0.0,0.0,0.0,0,0,100,30.07,29.60,9,1,10,0.14
2013-2-26,45.0,38.3,32.0,0.0,0.0,0.0,0,0,100,30.10,29.96,8,0,9,0.05
2013-2-27,46.0,41.5,37.0,0.0,0.0,0.0,0,0,100,30.07,29.96,3,0,3,0.13
2013-2-28,50.0,45.1,41.0,0.0,0.0,0.0,0,0,100,30.10,29.95,9,1,9,0.40
2013-3-1,54.0,50.1,48.0,0.0,0.0,0.0,0,0,100,30.12,30.04,11,2,11,0.02
2013-3-2,54.0,48.1,40.0,0.0,0.0,0.0,0,0,100,30.04,29.80,10,1,11,0.02
2013-3-3,47.0,40.3,35.0,0.0,0.0,0.0,0,0,100,30.08,29.97,5,0,6,0.00
2013-3-4,49.0,39.6,33.0,0.0,0.0,0.0,0,0,100,30.08,29.69,3,0,3,0.00
2013-3-5,48.0,41.6,38.0,0.0,0.0,0.0,0,0,100,29.69,29.48,2,0,2,0.20
2013-3-6,42.0,40.2,38.0,0.0,0.0,0.0,0,0,100,29.65,29.31,3,0,3,0.13
2013-3-7,48.0,42.9,39.0,0.0,0.0,0.0,0,0,100,29.87,29.65,3,0,3,0.09
2013-3-8,50.0,41.4,36.0,0.0,0.0,0.0,0,0,100,30.01,29.84,0,0,0,0.03
2013-3-9,51.0,40.5,31.0,0.0,0.0,0.0,0,0,100,30.28,30.01,4,0,4,0.04
2013-3-10,46.0,41.4,37.0,0.0,0.0,0.0,0,0,100,30.27,30.20,1,0,1,0.03
2013-3-11,48.0,44.5,42.0,0.0,0.0,0.0,0,0,100,30.23,29.92,5,0,5,0.02
2013-3-12,54.0,48.7,45.0,0.0,0.0,0.0,0,0,100,29.92,29.80,10,3,10,0.02
2013-3-13,52.0,49.7,48.0,0.0,0.0,0.0,0,0,100,29.96,29.84,11,3,11,0.00
2013-3-14,54.0,48.8,47.0,0.0,0.0,0.0,0,0,100,29.90,29.77,13,1,13,0.01
2013-3-15,57.0,49.4,43.0,0.0,0.0,0.0,0,0,100,29.96,29.89,8,1,9,0.01
2013-3-16,52.0,45.1,37.0,0.0,0.0,0.0,0,0,100,29.90,29.60,14,2,14,0.00
2013-3-17,48.0,39.1,33.0,0.0,0.0,0.0,0,0,100,29.95,29.73,4,0,4,0.00
2013-3-18,52.0,42.3,36.0,0.0,0.0,0.0,0,0,100,30.02,29.84,9,0,11,0.01
2013-3-19,50.0,41.1,36.0,0.0,0.0,0.0,0,0,100,30.00,29.34,7,0,7,0.00
2013-3-20,50.0,44.6,36.0,0.0,0.0,0.0,0,0,100,29.77,29.08,13,2,13,0.95
2013-3-21,46.0,38.0,33.0,0.0,0.0,0.0,0,0,100,29.98,29.76,5,0,5,0.09
2013-3-22,45.0,37.5,34.0,0.0,0.0,0.0,0,0,100,30.15,29.97,3,0,3,0.04
2013-3-23,49.0,39.8,34.0,0.0,0.0,0.0,0,0,100,30.17,30.07,5,0,5,0.00
2013-3-24,51.0,40.6,33.0,0.0,0.0,0.0,0,0,100,30.08,29.90,2,0,2,0.00
2013-3-25,58.0,46.0,36.0,0.0,0.0,0.0,0,0,100,29.90,29.71,1,0,1,0.00
2013-3-26,58.0,49.2,43.0,0.0,0.0,0.0,0,0,100,29.78,29.72,3,0,3,0.00
2013-3-27,55.0,48.5,44.0,0.0,0.0,0.0,0,0,100,29.75,29.70,1,0,1,0.01
2013-3-28,60.0,49.3,44.0,0.0,0.0,0.0,0,0,100,29.92,29.74,1,0,1,0.20
2013-3-29,62.0,50.8,43.0,0.0,0.0,0.0,0,0,100,30.03,29.92,1,0,5,0.00
2013-3-30,66.0,50.7,39.0,0.0,0.0,0.0,0,0,100,30.04,29.84,5,0,5,0.00
2013-3-31,69.0,54.1,43.0,0.0,0.0,0.0,0,0,100,29.84,29.69,5,0,6,0.00
2013-4-1,58.0,49.7,43.0,0.0,0.0,0.0,0,0,100,29.91,29.72,5,0,5,0.01
2013-4-2,57.0,48.4,43.0,0.0,0.0,0.0,0,0,100,29.97,29.91,5,0,5,0.00
2013-4-3,60.0,50.8,44.0,0.0,0.0,0.0,0,0,100,29.96,29.72,3,0,3,0.00
2013-4-4,51.0,49.5,47.0,0.0,0.0,0.0,0,0,100,29.72,29.38,10,1,11,0.64
2013-4-5,56.0,50.0,47.0,0.0,0.0,0.0,0,0,100,29.61,29.46,11,2,11,0.70
2013-4-6,55.0,47.2,43.0,0.0,0.0,0.0,0,0,100,29.66,29.41,12,1,13,0.34
2013-4-7,46.0,42.9,39.0,0.0,0.0,0.0,0,0,100,29.65,29.27,3,0,6,0.92
2013-4-8,53.0,46.3,41.0,0.0,0.0,0.0,0,0,100,30.03,29.65,2,0,3,0.02
2013-4-9,53.0,46.6,41.0,0.0,0.0,0.0,0,0,100,30.12,29.93,6,0,6,0.00
2013-4-10,58.0,49.7,46.0,0.0,0.0,0.0,0,0,100,30.02,29.68,8,0,10,0.47
2013-4-11,51.0,45.8,42.0,0.0,0.0,0.0,0,0,100,30.08,29.96,3,0,3,0.00
2013-4-12,44.0,42.2,40.0,0.0,0.0,0.0,0,0,100,29.96,29.41,7,0,8,0.27
2013-4-13,52.0,42.2,34.0,0.0,0.0,0.0,0,0,100,29.76,29.48,8,0,9,0.14
2013-4-14,54.0,43.5,37.0,0.0,0.0,0.0,0,0,100,29.77,29.69,5,0,5,0.03
2013-4-15,54.0,44.1,36.0,0.0,0.0,0.0,0,0,100,29.95,29.70,5,0,5,0.03
2013-4-16,58.0,45.6,36.0,0.0,0.0,0.0,0,0,100,30.18,29.95,9,0,9,0.00
2013-4-17,60.0,47.1,38.0,0.0,0.0,0.0,0,0,100,30.22,30.18,5,0,5,0.00
2013-4-18,51.0,46.0,41.0,0.0,0.0,0.0,0,0,100,30.22,29.94,10,0,10,0.00
2013-4-19,54.0,49.9,48.0,0.0,0.0,0.0,0,0,100,29.95,29.81,9,0,10,0.41
2013-4-20,53.0,47.9,45.0,0.0,0.0,0.0,0,0,100,30.05,29.95,1,0,1,0.08
2013-4-21,49.0,45.2,40.0,0.0,0.0,0.0,0,0,100,30.14,29.98,6,0,6,0.11
2013-4-22,60.0,46.6,36.0,0.0,0.0,0.0,0,0,100,30.31,30.14,6,0,7,0.01
2013-4-23,65.0,48.1,36.0,0.0,0.0,0.0,0,0,100,30.19,30.03,5,0,5,0.00
2013-4-24,70.0,53.2,41.0,0.0,0.0,0.0,0,0,100,30.09,29.80,4,0,4,0.00
2013-4-25,73.0,56.3,44.0,0.0,0.0,0.0,0,0,100,29.90,29.80,5,0,5,0.00
2013-4-26,65.0,53.3,45.0,0.0,0.0,0.0,0,0,100,30.03,29.90,1,0,1,0.00
2013-4-27,56.0,52.1,49.0,0.0,0.0,0.0,0,0,100,29.98,29.91,12,1,12,0.00
2013-4-28,58.0,50.6,46.0,0.0,0.0,0.0,0,0,100,29.99,29.67,10,1,11,0.03
2013-4-29,58.0,48.6,44.0,0.0,0.0,0.0,0,0,100,29.91,29.65,10,0,10,0.01
2013-4-30,54.0,45.5,38.0,0.0,0.0,0.0,0,0,100,30.21,29.90,4,0,4,0.00
2013-5-1,64.0,49.2,38.0,0.0,0.0,0.0,0,0,100,30.36,30.21,3,0,3,0.00
2013-5-2,67.0,53.4,42.0,0.0,0.0,0.0,0,0,100,30.31,30.00,7,0,7,0.00
2013-5-3,72.0,57.9,46.0,0.0,0.0,0.0,0,0,100,30.16,29.99,6,0,8,0.00
2013-5-4,79.0,62.2,49.0,0.0,0.0,0.0,0,0,100,30.01,29.77,5,0,5,0.00
2013-5-5,85.0,66.1,52.0,0.0,0.0,0.0,0,0,100,29.77,29.59,4,0,4,0.00
2013-5-6,87.0,67.9,54.0,0.0,0.0,0.0,0,0,100,29.61,29.56,3,0,3,0.00
2013-5-7,74.0,59.9,51.0,0.0,0.0,0.0,0,0,100,29.76,29.60,6,0,6,0.00
2013-5-8,65.0,55.8,51.0,0.0,0.0,0.0,0,0,100,29.92,29.75,3,0,3,0.00
2013-5-9,72.0,57.1,48.0,0.0,0.0,0.0,0,0,100,30.00,29.91,2,0,2,0.00
2013-5-10,79.0,61.4,48.0,0.0,0.0,0.0,0,0,100,29.98,29.92,1,0,1,0.00
2013-5-11,78.0,62.8,52.0,0.0,0.0,0.0,0,0,100,29.94,29.80,5,0,5,0.00
2013-5-12,65.0,59.6,56.0,0.0,0.0,0.0,0,0,100,29.86,29.77,8,0,8,0.04
2013-5-13,62.0,55.3,48.0,0.0,0.0,0.0,0,0,100,29.93,29.71,14,2,14,0.03
2013-5-14,66.0,53.9,46.0,0.0,0.0,0.0,0,0,100,29.99,29.88,5,0,5,0.00
2013-5-15,63.0,53.1,46.0,0.0,0.0,0.0,0,0,100,29.88,29.76,6,0,6,0.04
2013-5-16,70.0,58.4,52.0,0.0,0.0,0.0,0,0,100,29.76,29.66,3,0,3,0.00
2013-5-17,63.0,55.9,51.0,0.0,0.0,0.0,0,0,100,29.80,29.68,6,0,6,0.03
2013-5-18,58.0,54.1,49.0,0.0,0.0,0.0,0,0,100,30.04,29.80,3,0,3,0.03
2013-5-19,61.0,55.0,50.0,0.0,0.0,0.0,0,0,100,30.19,30.03,0,0,0,0.00
2013-5-20,70.0,55.5,47.0,0.0,0.0,0.0,0,0,100,30.11,29.65,3,0,3,0.01
2013-5-21,52.0,48.7,46.0,0.0,0.0,0.0,0,0,100,29.65,29.53,0,0,0,0.71
2013-5-22,51.0,47.6,45.0,0.0,0.0,0.0,0,0,100,29.68,29.59,0,0,0,0.41
2013-5-23,52.0,47.3,44.0,0.0,0.0,0.0,0,0,100,29.76,29.66,6,0,6,0.07
2013-5-24,63.0,52.1,45.0,0.0,0.0,0.0,0,0,100,29.79,29.72,3,0,5,0.02
2013-5-25,62.0,53.4,48.0,0.0,0.0,0.0,0,0,100,29.79,29.72,4,0,5,0.07
2013-5-26,63.0,53.4,49.0,0.0,0.0,0.0,0,0,100,29.75,29.69,8,0,8,0.14
2013-5-27,56.0,52.7,49.0,0.0,0.0,0.0,0,0,100,29.69,29.46,6,0,6,0.61
2013-5-28,62.0,54.4,50.0,0.0,0.0,0.0,0,0,100,29.64,29.49,12,1,12,0.00
2013-5-29,56.0,51.3,49.0,0.0,0.0,0.0,0,0,100,29.71,29.44,3,0,3,0.25
2013-5-30,63.0,52.1,46.0,0.0,0.0,0.0,0,0,100,30.00,29.71,8,0,8,0.12
2013-5-31,64.0,54.5,48.0,0.0,0.0,0.0,0,0,100,30.12,30.00,4,0,4,0.00
2013-6-1,63.0,53.8,50.0,0.0,0.0,0.0,0,0,100,30.00,29.81,2,0,3,0.00
2013-6-2,67.0,58.5,52.0,0.0,0.0,0.0,0,0,100,29.86,29.80,1,0,1,0.03
2013-6-3,71.0,58.1,50.0,0.0,0.0,0.0,0,0,100,29.89,29.81,0,0,0,0.02
2013-6-4,79.0,62.2,49.0,0.0,0.0,0.0,0,0,100,29.89,29.80,3,0,3,0.00
2013-6-5,79.0,63.8,53.0,0.0,0.0,0.0,0,0,100,29.86,29.78,3,0,3,0.00
2013-6-6,80.0,63.8,52.0,0.0,0.0,0.0,0,0,100,29.81,29.77,4,0,4,0.00
2013-6-7,64.0,59.0,54.0,0.0,0.0,0.0,0,0,100,29.91,29.77,2,0,3,0.00
2013-6-8,66.0,57.9,53.0,0.0,0.0,0.0,0,0,100,29.95,29.86,1,0,1,0.00
2013-6-9,62.0,55.3,50.0,0.0,0.0,0.0,0,0,100,29.89,29.77,4,0,5,0.00
2013-6-10,68.0,57.1,48.0,0.0,0.0,0.0,0,0,100,29.78,29.65,5,0,5,0.00
2013-6-11,61.0,54.7,50.0,0.0,0.0,0.0,0,0,100,29.83,29.67,3,0,3,0.08
2013-6-12,67.0,55.3,46.0,0.0,0.0,0.0,0,0,100,29.89,29.82,7,0,7,0.00
2013-6-13,66.0,57.8,52.0,0.0,0.0,0.0,0,0,100,29.97,29.87,0,0,0,0.00
2013-6-14,63.0,55.8,52.0,0.0,0.0,0.0,0,0,100,29.99,29.80,0,0,0,0.00
2013-6-15,76.0,61.2,49.0,0.0,0.0,0.0,0,0,100,29.80,29.69,5,0,5,0.00
2013-6-16,75.0,61.8,51.0,0.0,0.0,0.0,0,0,100,29.84,29.74,5,0,5,0.00
2013-6-17,77.0,61.4,52.0,0.0,0.0,0.0,0,0,100,29.84,29.68,7,0,8,0.04
2013-6-18,73.0,61.3,54.0,0.0,0.0,0.0,0,0,100,29.71,29.65,6,0,6,0.00
2013-6-19,63.0,57.9,51.0,0.0,0.0,0.0,0,0,100,29.75,29.63,0,0,0,0.00
2013-6-20,61.0,55.6,53.0,0.0,0.0,0.0,0,0,100,29.85,29.68,3,0,3,0.13
2013-6-21,68.0,58.6,53.0,0.0,0.0,0.0,0,0,100,29.92,29.84,4,0,4,0.00
2013-6-22,76.0,62.6,51.0,0.0,0.0,0.0,0,0,100,29.87,29.61,3,0,3,0.00
2013-6-23,69.0,62.3,58.0,0.0,0.0,0.0,0,0,100,29.61,29.34,0,0,0,0.12
2013-6-24,67.0,60.3,56.0,0.0,0.0,0.0,0,0,100,29.43,29.30,6,0,8,0.01
2013-6-25,70.0,59.5,55.0,0.0,0.0,0.0,0,0,100,29.58,29.40,11,0,11,1.00
2013-6-26,66.0,59.7,55.0,0.0,0.0,0.0,0,0,100,29.82,29.56,6,0,6,0.26
2013-6-27,64.0,60.7,57.0,0.0,0.0,0.0,0,0,100,29.97,29.79,0,0,0,0.25
2013-6-28,85.0,68.8,58.0,0.0,0.0,0.0,0,0,100,29.96,29.83,5,0,5,0.95
2013-6-29,83.0,70.2,62.0,0.0,0.0,0.0,0,0,100,29.86,29.78,3,0,3,0.00
2013-6-30,91.0,73.3,59.0,0.0,0.0,0.0,0,0,100,29.78,29.66,3,0,4,0.00
2013-7-1,87.0,72.9,62.0,0.0,0.0,0.0,0,0,100,29.79,29.67,3,0,3,0.00
2013-7-2,81.0,68.0,59.0,0.0,0.0,0.0,0,0,100,29.87,29.79,3,0,4,0.00
2013-7-3,79.0,65.2,58.0,0.0,0.0,0.0,0,0,100,29.89,29.82,4,0,6,0.00
2013-7-4,70.0,61.0,56.0,0.0,0.0,0.0,0,0,100,29.87,29.76,2,0,3,0.00
2013-7-5,72.0,62.1,53.0,0.0,0.0,0.0,0,0,100,29.77,29.70,3,0,3,0.00
2013-7-6,79.0,64.9,54.0,0.0,0.0,0.0,0,0,100,29.71,29.63,3,0,4,0.00
2013-7-7,78.0,64.8,55.0,0.0,0.0,0.0,0,0,100,29.69,29.62,3,0,4,0.00
2013-7-8,79.0,64.8,56.0,0.0,0.0,0.0,0,0,100,29.85,29.68,3,0,3,0.00
2013-7-9,86.0,68.6,57.0,0.0,0.0,0.0,0,0,100,29.85,29.77,3,0,3,0.00
2013-7-10,68.0,61.1,56.0,0.0,0.0,0.0,0,0,100,29.80,29.70,4,0,4,0.00
2013-7-11,66.0,58.9,54.0,0.0,0.0,0.0,0,0,100,29.82,29.70,2,0,3,0.00
2013-7-12,64.0,58.1,53.0,0.0,0.0,0.0,0,0,100,29.83,29.73,1,0,3,0.00
2013-7-13,77.0,61.5,50.0,0.0,0.0,0.0,0,0,100,29.94,29.83,4,0,4,0.00
2013-7-14,82.0,64.3,51.0,0.0,0.0,0.0,0,0,100,29.86,29.75,1,0,5,0.00
2013-7-15,80.0,66.0,53.0,0.0,0.0,0.0,0,0,100,29.77,29.64,9,0,9,0.00
2013-7-16,87.0,70.9,58.0,0.0,0.0,0.0,0,0,100,29.64,29.57,4,0,4,0.00
2013-7-17,72.0,64.6,59.0,0.0,0.0,0.0,0,0,100,29.94,29.61,8,0,8,0.00
2013-7-18,79.0,65.4,58.0,0.0,0.0,0.0,0,0,100,29.97,29.88,4,0,4,0.00
2013-7-19,83.0,65.1,54.0,0.0,0.0,0.0,0,0,100,29.90,29.80,4,0,4,0.00
2013-7-20,76.0,63.0,55.0,0.0,0.0,0.0,0,0,100,29.82,29.70,3,0,3,0.00
2013-7-21,76.0,63.0,55.0,0.0,0.0,0.0,0,0,100,29.71,29.66,3,0,3,0.00
2013-7-22,78.0,65.3,56.0,0.0,0.0,0.0,0,0,100,29.79,29.67,4,0,4,0.00
2013-7-23,87.0,67.3,54.0,0.0,0.0,0.0,0,0,100,29.79,29.73,3,0,3,0.00
2013-7-24,85.0,68.5,56.0,0.0,0.0,0.0,0,0,100,29.78,29.74,2,0,3,0.00
2013-7-25,85.0,67.6,54.0,0.0,0.0,0.0,0,0,100,29.83,29.76,5,0,5,0.00
2013-7-26,85.0,67.3,55.0,0.0,0.0,0.0,0,0,100,29.88,29.81,5,0,5,0.00
2013-7-27,78.0,63.5,53.0,0.0,0.0,0.0,0,0,100,29.89,29.73,3,0,3,0.00
2013-7-28,69.0,60.0,54.0,0.0,0.0,0.0,0,0,100,29.74,29.68,5,0,5,0.00
2013-7-29,76.0,62.6,52.0,0.0,0.0,0.0,0,0,100,29.73,29.68,3,0,3,0.00
2013-7-30,76.0,63.6,55.0,0.0,0.0,0.0,0,0,100,29.87,29.73,4,0,4,0.00
2013-7-31,70.0,61.3,55.0,0.0,0.0,0.0,0,0,100,29.84,29.74,1,0,1,0.00
2013-8-1,68.0,60.9,55.0,0.0,0.0,0.0,0,0,100,29.79,29.74,5,0,5,0.00
2013-8-2,60.0,58.7,57.0,0.0,0.0,0.0,0,0,100,29.86,29.76,0,0,0,0.10
2013-8-3,71.0,62.3,57.0,0.0,0.0,0.0,0,0,100,29.86,29.79,4,0,5,0.00
2013-8-4,81.0,65.4,53.0,0.0,0.0,0.0,0,0,100,29.79,29.70,5,0,6,0.00
2013-8-5,86.0,68.5,57.0,0.0,0.0,0.0,0,0,100,29.74,29.68,3,0,4,0.00
2013-8-6,86.0,68.0,55.0,0.0,0.0,0.0,0,0,100,29.72,29.67,3,0,3,0.00
2013-8-7,87.0,68.2,56.0,0.0,0.0,0.0,0,0,100,29.73,29.66,2,0,4,0.00
2013-8-8,83.0,66.4,57.0,0.0,0.0,0.0,0,0,100,29.75,29.67,3,0,5,0.00
2013-8-9,82.0,67.6,56.0,0.0,0.0,0.0,0,0,100,29.68,29.57,3,0,3,0.00
2013-8-10,77.0,65.5,58.0,0.0,0.0,0.0,0,0,100,29.75,29.59,5,0,5,0.16
2013-8-11,72.0,62.7,57.0,0.0,0.0,0.0,0,0,100,29.78,29.72,3,0,3,0.00
2013-8-12,78.0,64.5,58.0,0.0,0.0,0.0,0,0,100,29.79,29.72,5,0,5,0.00
2013-8-13,81.0,65.3,55.0,0.0,0.0,0.0,0,0,100,29.81,29.64,3,0,3,0.00
2013-8-14,80.0,64.2,56.0,0.0,0.0,0.0,0,0,100,29.68,29.62,6,1,7,0.09
2013-8-15,67.0,64.2,62.0,0.0,0.0,0.0,0,0,100,29.72,29.63,3,0,3,0.02
2013-8-16,82.0,68.2,61.0,0.0,0.0,0.0,0,0,100,29.74,29.67,5,0,5,0.00
2013-8-17,75.0,65.4,57.0,0.0,0.0,0.0,0,0,100,29.79,29.69,5,0,5,0.00
2013-8-18,73.0,62.4,59.0,0.0,0.0,0.0,0,0,100,29.84,29.78,3,0,3,0.00
2013-8-19,78.0,65.1,58.0,0.0,0.0,0.0,0,0,100,29.83,29.77,3,0,4,0.00
2013-8-20,76.0,63.2,57.0,0.0,0.0,0.0,0,0,100,29.87,29.78,6,0,6,0.00
2013-8-21,79.0,64.3,51.0,0.0,0.0,0.0,0,0,100,29.79,29.65,6,0,6,0.00
2013-8-22,82.0,67.6,54.0,0.0,0.0,0.0,0,0,100,29.65,29.52,5,0,5,0.00
2013-8-23,78.0,65.3,59.0,0.0,0.0,0.0,0,0,100,29.58,29.53,8,1,8,0.00
2013-8-24,70.0,63.0,58.0,0.0,0.0,0.0,0,0,100,29.62,29.57,5,0,5,0.03
2013-8-25,72.0,61.7,53.0,0.0,0.0,0.0,0,0,100,29.64,29.57,4,0,4,0.03
2013-8-26,74.0,62.0,56.0,0.0,0.0,0.0,0,0,100,29.66,29.55,10,1,10,0.04
2013-8-27,76.0,64.6,58.0,0.0,0.0,0.0,0,0,100,29.66,29.52,4,0,5,0.10
2013-8-28,75.0,65.7,58.0,0.0,0.0,0.0,0,0,100,29.62,29.52,3,0,3,0.17
2013-8-29,69.0,64.3,62.0,0.0,0.0,0.0,0,0,100,29.70,29.56,8,0,8,1.00
2013-8-30,73.0,64.0,57.0,0.0,0.0,0.0,0,0,100,29.84,29.70,6,0,7,0.01
2013-8-31,78.0,64.2,54.0,0.0,0.0,0.0,0,0,100,29.79,29.54,1,0,5,0.00
2013-9-1,79.0,65.1,56.0,0.0,0.0,0.0,0,0,100,29.58,29.50,5,0,5,0.00
2013-9-2,77.0,65.9,58.0,0.0,0.0,0.0,0,0,100,29.65,29.56,4,0,4,0.00
2013-9-3,70.0,63.1,60.0,0.0,0.0,0.0,0,0,100,29.74,29.63,1,0,1,0.45
2013-9-4,68.0,61.7,57.0,0.0,0.0,0.0,0,0,100,29.77,29.69,3,0,3,0.03
2013-9-5,64.0,60.8,59.0,0.0,0.0,0.0,0,0,100,29.75,29.63,3,0,3,0.44
2013-9-6,67.0,61.9,60.0,0.0,0.0,0.0,0,0,100,29.80,29.63,5,0,5,0.87
2013-9-7,68.0,61.5,57.0,0.0,0.0,0.0,0,0,100,29.80,29.74,3,0,3,0.00
2013-9-8,75.0,62.9,54.0,0.0,0.0,0.0,0,0,100,29.81,29.74,4,0,4,0.00
2013-9-9,75.0,62.3,54.0,0.0,0.0,0.0,0,0,100,29.77,29.69,0,0,1,0.00
2013-9-10,76.0,62.9,52.0,0.0,0.0,0.0,0,0,100,29.70,29.59,0,0,0,0.00
2013-9-11,88.0,70.4,59.0,0.0,0.0,0.0,0,0,100,29.64,29.58,3,0,3,0.00
2013-9-12,76.0,65.2,59.0,0.0,0.0,0.0,0,0,100,29.70,29.60,3,0,3,0.00
2013-9-13,66.0,61.8,59.0,0.0,0.0,0.0,0,0,100,29.66,29.57,1,0,1,0.01
2013-9-14,67.0,62.0,59.0,0.0,0.0,0.0,0,0,100,29.58,29.42,1,0,1,0.05
2013-9-15,62.0,58.8,56.0,0.0,0.0,0.0,0,0,100,29.49,29.37,4,0,4,0.22
2013-9-16,65.0,58.7,56.0,0.0,0.0,0.0,0,0,100,29.61,29.46,5,0,5,0.15
2013-9-17,61.0,56.9,54.0,0.0,0.0,0.0,0,0,100,29.61,29.55,0,0,2,0.01
2013-9-18,64.0,56.6,52.0,0.0,0.0,0.0,0,0,100,29.77,29.60,3,0,3,0.00
2013-9-19,71.0,59.0,50.0,0.0,0.0,0.0,0,0,100,29.73,29.42,2,0,2,0.00
2013-9-20,69.0,58.8,51.0,0.0,0.0,0.0,0,0,100,29.42,29.26,6,0,7,0.05
2013-9-21,64.0,57.0,52.0,0.0,0.0,0.0,0,0,100,29.39,29.31,3,0,3,0.01
2013-9-22,57.0,54.8,53.0,0.0,0.0,0.0,0,0,100,29.39,29.21,7,1,8,0.96
2013-9-23,61.0,54.1,52.0,0.0,0.0,0.0,0,0,100,29.65,29.39,8,1,8,0.05
2013-9-24,62.0,52.6,48.0,0.0,0.0,0.0,0,0,100,29.63,29.51,6,0,6,0.18
2013-9-25,57.0,51.2,48.0,0.0,0.0,0.0,0,0,100,29.72,29.53,2,0,2,0.07
2013-9-26,57.0,49.9,43.0,0.0,0.0,0.0,0,0,100,29.82,29.71,2,0,2,0.06
2013-9-27,55.0,52.1,48.0,0.0,0.0,0.0,0,0,100,29.81,29.51,7,1,7,0.02
2013-9-28,57.0,53.3,50.0,0.0,0.0,0.0,0,0,100,29.51,28.97,13,2,13,2.40
2013-9-29,52.0,50.4,48.0,0.0,0.0,0.0,0,0,100,29.20,28.70,12,1,12,2.03
2013-9-30,57.0,50.1,46.0,0.0,0.0,0.0,0,0,100,29.59,29.03,11,1,11,0.18
2013-10-1,56.0,49.5,46.0,0.0,0.0,0.0,0,0,100,29.79,29.57,10,1,10,0.14
2013-10-2,53.0,48.9,46.0,0.0,0.0,0.0,0,0,100,29.87,29.73,0,0,0,0.24
2013-10-3,53.0,47.8,44.0,0.0,0.0,0.0,0,0,100,30.16,29.88,0,0,0,0.00
2013-10-4,57.0,47.8,40.0,0.0,0.0,0.0,0,0,100,30.18,30.06,0,0,0,0.01
2013-10-5,63.0,51.6,44.0,0.0,0.0,0.0,0,0,100,30.06,29.83,1,0,1,0.00
2013-10-6,68.0,54.8,44.0,0.0,0.0,0.0,0,0,100,29.83,29.56,10,1,10,0.08
2013-10-7,60.0,53.6,48.0,0.0,0.0,0.0,0,0,100,29.69,29.55,7,0,7,0.00
2013-10-8,51.0,47.4,43.0,0.0,0.0,0.0,0,0,100,29.77,29.63,1,0,1,0.31
2013-10-9,53.0,46.5,40.0,0.0,0.0,0.0,0,0,100,29.83,29.64,2,0,2,0.01
2013-10-10,55.0,49.5,45.0,0.0,0.0,0.0,0,0,100,29.77,29.62,1,0,1,0.00
2013-10-11,54.0,50.6,48.0,0.0,0.0,0.0,0,0,100,29.84,29.76,1,0,1,0.00
2013-10-12,51.0,48.2,46.0,0.0,0.0,0.0,0,0,100,29.92,29.76,0,0,0,0.06
2013-10-13,54.0,47.1,41.0,0.0,0.0,0.0,0,0,100,30.07,29.91,1,0,1,0.01
2013-10-14,54.0,46.5,41.0,0.0,0.0,0.0,0,0,100,30.13,30.06,3,0,3,0.00
2013-10-15,56.0,47.7,43.0,0.0,0.0,0.0,0,0,100,30.09,29.88,1,0,1,0.00
2013-10-16,55.0,49.1,45.0,0.0,0.0,0.0,0,0,100,29.90,29.84,0,0,0,0.00
2013-10-17,54.0,48.8,45.0,0.0,0.0,0.0,0,0,100,29.97,29.90,0,0,0,0.00
2013-10-18,53.0,47.1,43.0,0.0,0.0,0.0,0,0,100,29.95,29.85,0,0,0,0.00
2013-10-19,49.0,45.7,41.0,0.0,0.0,0.0,0,0,100,29.90,29.84,0,0,0,0.00
2013-10-20,48.0,46.3,45.0,0.0,0.0,0.0,0,0,100,29.91,29.84,0,0,0,0.01
2013-10-21,49.0,46.6,45.0,0.0,0.0,0.0,0,0,100,29.87,29.80,0,0,0,0.00
2013-10-22,54.0,47.7,45.0,0.0,0.0,0.0,0,0,100,29.82,29.73,0,0,0,0.00
2013-10-23,55.0,47.4,42.0,0.0,0.0,0.0,0,0,100,29.75,29.67,0,0,0,0.00
2013-10-24,49.0,45.3,41.0,0.0,0.0,0.0,0,0,100,29.82,29.72,0,0,0,0.00
2013-10-25,51.0,48.5,47.0,0.0,0.0,0.0,0,0,100,30.03,29.82,0,0,0,0.03
2013-10-26,52.0,49.5,48.0,0.0,0.0,0.0,0,0,100,30.04,29.89,0,0,0,0.02
2013-10-27,56.0,50.7,46.0,0.0,0.0,0.0,0,0,100,29.90,29.56,9,0,9,0.13
2013-10-28,54.0,50.7,44.0,0.0,0.0,0.0,0,0,100,29.63,29.57,7,0,10,0.00
2013-10-29,51.0,43.6,37.0,0.0,0.0,0.0,0,0,100,29.73,29.63,1,0,1,0.01
2013-10-30,53.0,45.5,38.0,0.0,0.0,0.0,0,0,100,29.81,29.71,8,0,8,0.00
2013-10-31,53.0,49.3,47.0,0.0,0.0,0.0,0,0,100,29.97,29.75,7,0,8,0.00
2013-11-1,56.0,51.3,47.0,0.0,0.0,0.0,0,0,100,29.98,29.51,5,0,6,0.01
2013-11-2,52.0,47.8,42.0,0.0,0.0,0.0,0,0,100,29.57,29.09,11,1,16,0.48
2013-11-3,47.0,41.0,37.0,0.0,0.0,0.0,0,0,100,29.81,29.57,0,0,0,0.00
2013-11-4,47.0,41.7,36.0,0.0,0.0,0.0,0,0,100,29.89,29.74,3,0,3,0.00
2013-11-5,47.0,44.8,42.0,0.0,0.0,0.0,0,0,100,29.96,29.69,1,0,1,0.03
2013-11-6,49.0,45.9,43.0,0.0,0.0,0.0,0,0,100,30.03,29.72,0,0,0,0.12
2013-11-7,51.0,46.8,46.0,0.0,0.0,0.0,0,0,100,29.72,29.35,8,0,8,1.32
2013-11-8,49.0,45.0,41.0,0.0,0.0,0.0,0,0,100,29.86,29.64,1,0,1,0.00
2013-11-9,48.0,44.0,41.0,0.0,0.0,0.0,0,0,100,29.85,29.77,0,0,0,0.06
2013-11-10,48.0,45.1,44.0,0.0,0.0,0.0,0,0,100,29.85,29.80,4,0,4,0.11
2013-11-11,52.0,46.1,42.0,0.0,0.0,0.0,0,0,100,29.86,29.71,0,0,0,0.00
2013-11-12,54.0,49.8,44.0,0.0,0.0,0.0,0,0,100,30.06,29.71,7,0,7,0.28
2013-11-13,53.0,49.8,46.0,0.0,0.0,0.0,0,0,100,30.14,30.02,8,0,8,0.28
2013-11-14,49.0,46.4,42.0,0.0,0.0,0.0,0,0,100,30.03,29.76,0,0,0,0.05
2013-11-15,47.0,43.8,42.0,0.0,0.0,0.0,0,0,100,29.76,28.98,10,0,10,0.04
2013-11-16,46.0,41.1,36.0,0.0,0.0,0.0,0,0,100,29.45,29.01,0,0,0,0.00
2013-11-17,49.0,43.9,38.0,0.0,0.0,0.0,0,0,100,29.58,29.44,10,1,10,0.00
2013-11-18,50.0,47.0,44.0,0.0,0.0,0.0,0,0,100,29.58,29.22,6,0,6,1.44
2013-11-19,50.0,41.7,34.0,0.0,0.0,0.0,0,0,100,29.78,29.21,5,0,6,0.21
2013-11-20,39.0,34.4,31.0,0.0,0.0,0.0,0,0,100,30.22,29.77,4,0,4,0.04
2013-11-21,39.0,33.1,30.0,0.0,0.0,0.0,0,0,100,30.38,30.22,5,0,5,0.01
2013-11-22,42.0,35.1,31.0,0.0,0.0,0.0,0,0,100,30.37,30.17,1,0,1,0.00
2013-11-23,46.0,38.1,34.0,0.0,0.0,0.0,0,0,100,30.17,29.91,0,0,0,0.00
2013-11-24,43.0,38.6,36.0,0.0,0.0,0.0,0,0,100,29.96,29.86,0,0,0,0.00
2013-11-25,43.0,37.8,35.0,0.0,0.0,0.0,0,0,100,30.02,29.95,0,0,0,0.00
2013-11-26,47.0,39.9,33.0,0.0,0.0,0.0,0,0,100,29.98,29.79,0,0,0,0.01
2013-11-27,50.0,44.0,39.0,0.0,0.0,0.0,0,0,100,29.79,29.66,0,0,0,0.01
2013-11-28,43.0,38.4,34.0,0.0,0.0,0.0,0,0,100,29.88,29.72,0,0,0,0.00
2013-11-29,45.0,41.5,37.0,0.0,0.0,0.0,0,0,100,30.02,29.88,0,0,0,0.01
2013-11-30,48.0,46.2,44.0,0.0,0.0,0.0,0,0,100,30.02,29.77,6,1,8,0.01
2013-12-1,51.0,47.9,42.0,0.0,0.0,0.0,0,0,100,29.77,29.42,8,1,10,0.06
2013-12-2,42.0,37.0,33.0,0.0,0.0,0.0,0,0,100,29.76,29.49,4,0,5,0.01
2013-12-3,36.0,32.7,30.0,0.0,0.0,0.0,0,0,100,30.02,29.74,10,0,10,0.00
2013-12-4,34.0,29.8,28.0,0.0,0.0,0.0,0,0,100,30.06,29.99,4,0,4,0.00
2013-12-5,32.0,28.4,25.0,0.0,0.0,0.0,0,0,100,30.04,29.88,0,0,0,0.00
2013-12-6,30.0,27.0,23.0,0.0,0.0,0.0,0,0,100,29.94,29.82,7,0,8,0.00
2013-12-7,27.0,23.7,21.0,0.0,0.0,0.0,0,0,100,30.13,29.93,8,0,8,0.00
2013-12-8,31.0,25.1,20.0,0.0,0.0,0.0,0,0,100,30.29,30.12,0,0,0,0.00
2013-12-9,31.0,27.5,22.0,0.0,0.0,0.0,0,0,100,30.29,30.20,0,0,0,0.00
2013-12-10,36.0,32.3,28.0,0.0,0.0,0.0,0,0,100,30.21,30.13,0,0,1,0.01
2013-12-11,36.0,31.9,28.0,0.0,0.0,0.0,0,0,100,30.13,29.86,0,0,0,0.00
2013-12-12,41.0,36.1,31.0,0.0,0.0,0.0,0,0,100,29.87,29.72,7,0,8,0.02
2013-12-13,45.0,42.3,40.0,0.0,0.0,0.0,0,0,100,30.13,29.81,2,0,2,0.00
2013-12-14,47.0,44.5,43.0,0.0,0.0,0.0,0,0,100,30.16,30.00,10,0,10,0.00
2013-12-15,50.0,46.3,43.0,0.0,0.0,0.0,0,0,100,30.19,30.02,9,0,10,0.03
2013-12-16,46.0,42.9,36.0,0.0,0.0,0.0,0,0,100,30.21,30.00,0,0,0,0.01
2013-12-17,40.0,39.3,37.0,0.0,0.0,0.0,0,0,100,30.00,29.81,0,0,0,0.00
2013-12-18,42.0,39.0,34.0,0.0,0.0,0.0,0,0,100,29.87,29.72,2,0,2,0.05
2013-12-19,38.0,34.7,32.0,0.0,0.0,0.0,0,0,100,30.05,29.87,6,0,6,0.01
2013-12-20,39.0,35.3,32.0,0.0,0.0,0.0,0,0,100,29.91,29.37,6,0,11,0.09
2013-12-21,42.0,40.5,39.0,0.0,0.0,0.0,0,0,100,29.89,29.55,0,0,0,0.12
2013-12-22,47.0,43.5,41.0,0.0,0.0,0.0,0,0,100,30.01,29.87,9,0,9,0.06
2013-12-23,51.0,45.7,37.0,0.0,0.0,0.0,0,0,100,30.24,29.83,8,1,10,0.00
2013-12-24,43.0,38.0,34.0,0.0,0.0,0.0,0,0,100,30.35,30.23,1,0,1,0.00
2013-12-25,39.0,36.0,32.0,0.0,0.0,0.0,0,0,100,30.27,30.12,0,0,0,0.00
2013-12-26,40.0,35.8,32.0,0.0,0.0,0.0,0,0,100,30.13,29.92,0,0,0,0.00
2013-12-27,43.0,37.9,32.0,0.0,0.0,0.0,0,0,100,30.10,29.80,3,0,3,0.01
2013-12-28,44.0,41.2,37.0,0.0,0.0,0.0,0,0,100,30.25,30.09,0,0,0,0.00
2013-12-29,42.0,39.6,37.0,0.0,0.0,0.0,0,0,100,30.22,30.05,0,0,0,0.00
2013-12-30,41.0,39.9,38.0,0.0,0.0,0.0,0,0,100,30.05,29.83,0,0,0,0.00
2013-12-31,44.0,41.1,38.0,0.0,0.0,0.0,0,0,100,30.11,29.90,0,0,0,0.01
2014-1-1,43.0,40.6,37.0,0.0,0.0,0.0,0,0,100,30.14,29.97,0,0,0,0.02
2014-1-2,50.0,44.5,40.0,0.0,0.0,0.0,0,0,100,29.98,29.58,10,1,10,0.02